EZY86TC LXGB-EGCC

Flight info

Callsign EZY86TC
Flight time N/A
Altitude 34000
Route DCT PIMOS M985 MGA DCT BLN DCT MORAL DCT BEXID DCT VTB/N0454F360 DCT SIE DCT XERMA DCT ARLUN DCT BUGIX DCT UNGAS DCT DELOG DCT NOVAN DCT RUSIB DCT NOZHU/N0445F350 DCT SHIRI DCT TOJAQ DCT EPACE DCT ACCOP DCT MOCQO P16 AXCIS AXCIS1M
Aircraft A320/M-SDE3FGHIRWY/LB1

Departure

Time N/A
Airport Gibraltar Airport (LXGB)

Arrival

Time 2026-05-04 15:19
Airport Manchester Airport (EGCC)
Time Latitude Longitude Altitude Speed Heading
2026-05-04 14:39 50.67689 -3.62864 34037 ft 454 kts
2026-05-04 14:40 50.77075 -3.61098 34044 ft 452 kts
2026-05-04 14:40 50.83319 -3.59900 34043 ft 451 kts
2026-05-04 14:41 50.89510 -3.58702 34046 ft 449 kts
2026-05-04 14:42 51.01890 -3.56249 34033 ft 447 kts
2026-05-04 14:42 51.08063 -3.55040 34024 ft 447 kts
2026-05-04 14:43 51.14230 -3.53848 34021 ft 446 kts
2026-05-04 14:43 51.20390 -3.52653 34018 ft 446 kts
2026-05-04 14:44 51.26552 -3.51462 34013 ft 445 kts
2026-05-04 14:44 51.32702 -3.50276 34000 ft 446 kts
2026-05-04 14:45 51.38865 -3.49066 34014 ft 446 kts
2026-05-04 14:45 51.45034 -3.47844 34015 ft 447 kts
2026-05-04 14:46 51.51194 -3.46621 34016 ft 447 kts
2026-05-04 14:46 51.57361 -3.45397 34009 ft 447 kts
2026-05-04 14:47 51.63504 -3.44179 34011 ft 447 kts
2026-05-04 14:47 51.69683 -3.42940 34016 ft 447 kts
2026-05-04 14:48 51.75861 -3.41694 34025 ft 448 kts
2026-05-04 14:48 51.82037 -3.40455 34041 ft 446 kts
2026-05-04 14:49 51.88204 -3.39218 34034 ft 446 kts
2026-05-04 14:49 51.94379 -3.38027 34026 ft 447 kts
2026-05-04 14:50 52.00592 -3.37443 33754 ft 449 kts
2026-05-04 14:50 52.03744 -3.37302 32515 ft 457 kts
2026-05-04 14:50 52.06927 -3.37178 31630 ft 458 kts
2026-05-04 14:51 52.10095 -3.37029 31064 ft 452 kts
2026-05-04 14:51 52.13221 -3.36846 30485 ft 447 kts
2026-05-04 14:51 52.16309 -3.36629 29881 ft 442 kts
2026-05-04 14:51 52.19360 -3.36393 29308 ft 436 kts
2026-05-04 14:52 52.22370 -3.36155 28754 ft 430 kts
2026-05-04 14:52 52.25339 -3.35927 28212 ft 424 kts
2026-05-04 14:52 52.28275 -3.35706 27682 ft 419 kts
2026-05-04 14:52 52.31169 -3.35491 27158 ft 414 kts
2026-05-04 14:53 52.34040 -3.35282 26658 ft 410 kts
2026-05-04 14:53 52.36839 -3.35084 26164 ft 406 kts
2026-05-04 14:53 52.39647 -3.34881 25680 ft 402 kts
2026-05-04 14:53 52.42427 -3.34675 25220 ft 399 kts
2026-05-04 14:54 52.45196 -3.34470 24745 ft 395 kts
2026-05-04 14:54 52.47931 -3.34267 24292 ft 393 kts
2026-05-04 14:54 52.50656 -3.34065 23850 ft 389 kts
2026-05-04 14:54 52.53361 -3.33863 23361 ft 387 kts
2026-05-04 14:55 52.56038 -3.33664 22905 ft 383 kts
2026-05-04 14:55 52.58685 -3.33470 22464 ft 379 kts
2026-05-04 14:55 52.61307 -3.33260 22023 ft 375 kts
2026-05-04 14:55 52.63852 -3.32534 21587 ft 370 kts 17°
2026-05-04 14:56 52.66281 -3.31177 21144 ft 366 kts 21°
2026-05-04 14:56 52.68662 -3.29753 20696 ft 363 kts 21°
2026-05-04 14:56 52.71033 -3.28339 20262 ft 361 kts 21°
2026-05-04 14:56 52.73393 -3.26930 19850 ft 360 kts 21°
2026-05-04 14:57 52.75750 -3.25525 19519 ft 361 kts 21°
2026-05-04 14:57 52.78107 -3.24120 19172 ft 360 kts 21°
2026-05-04 14:57 52.79669 -3.23187 18936 ft 360 kts 20°
2026-05-04 14:57 52.82785 -3.21319 18481 ft 359 kts 20°
2026-05-04 14:58 52.85136 -3.19908 18103 ft 359 kts 20°
2026-05-04 14:58 52.87473 -3.18509 17760 ft 357 kts 19°
2026-05-04 14:58 52.89871 -3.17488 17403 ft 355 kts
2026-05-04 14:58 52.91534 -3.17241 17170 ft 354 kts
2026-05-04 14:59 52.93988 -3.17061 16826 ft 352 kts
2026-05-04 14:59 52.96429 -3.16870 16482 ft 350 kts
2026-05-04 14:59 53.01256 -3.16480 15796 ft 345 kts
2026-05-04 15:00 53.03644 -3.16289 15471 ft 343 kts
2026-05-04 15:00 53.06024 -3.16101 15140 ft 342 kts
2026-05-04 15:00 53.08398 -3.15915 14806 ft 340 kts
2026-05-04 15:01 53.13077 -3.15552 14148 ft 337 kts
2026-05-04 15:01 53.15416 -3.15365 13810 ft 335 kts
2026-05-04 15:01 53.17739 -3.15177 13459 ft 334 kts
2026-05-04 15:01 53.20056 -3.14990 13131 ft 332 kts
2026-05-04 15:02 53.22353 -3.14804 12809 ft 330 kts
2026-05-04 15:02 53.24641 -3.14621 12479 ft 328 kts
2026-05-04 15:02 53.26918 -3.14440 12161 ft 326 kts
2026-05-04 15:02 53.29177 -3.14263 11837 ft 324 kts
2026-05-04 15:03 53.31422 -3.14083 11528 ft 322 kts
2026-05-04 15:03 53.33653 -3.13902 11238 ft 319 kts
2026-05-04 15:03 53.35829 -3.13702 11103 ft 308 kts
2026-05-04 15:03 53.37868 -3.12811 10941 ft 300 kts 22°
2026-05-04 15:04 53.39615 -3.10972 10759 ft 297 kts 40°
2026-05-04 15:04 53.40963 -3.08370 10483 ft 296 kts 57°
2026-05-04 15:04 53.42002 -3.05399 10177 ft 296 kts 59°
2026-05-04 15:04 53.43035 -3.02418 9855 ft 294 kts 59°
2026-05-04 15:05 53.44057 -2.99471 9523 ft 292 kts 58°
2026-05-04 15:05 53.45077 -2.96529 9215 ft 290 kts 58°
2026-05-04 15:05 53.46072 -2.93649 8918 ft 288 kts 59°
2026-05-04 15:05 53.47074 -2.90747 8624 ft 287 kts 58°
2026-05-04 15:06 53.48072 -2.87853 8311 ft 285 kts 59°
2026-05-04 15:06 53.49062 -2.84982 8006 ft 283 kts 59°
2026-05-04 15:06 53.50047 -2.82123 7716 ft 282 kts 59°
2026-05-04 15:07 53.51646 -2.76171 7122 ft 279 kts 70°
2026-05-04 15:07 53.52293 -2.73107 6829 ft 277 kts 70°
2026-05-04 15:07 53.52933 -2.70068 6545 ft 275 kts 70°
2026-05-04 15:07 53.53571 -2.67054 6284 ft 274 kts 70°
2026-05-04 15:08 53.54207 -2.64044 6038 ft 273 kts 70°
2026-05-04 15:08 53.54839 -2.61052 5780 ft 271 kts 70°
2026-05-04 15:08 53.55469 -2.58067 5521 ft 270 kts 70°
2026-05-04 15:08 53.56094 -2.55085 5268 ft 270 kts 70°
2026-05-04 15:09 53.56705 -2.52153 5019 ft 269 kts 70°
2026-05-04 15:09 53.57319 -2.49193 4761 ft 267 kts 70°
2026-05-04 15:09 53.57929 -2.46245 4486 ft 266 kts 70°
2026-05-04 15:10 53.59135 -2.40371 4033 ft 264 kts 73°
2026-05-04 15:10 53.59261 -2.37310 3986 ft 264 kts 96°
2026-05-04 15:10 53.58644 -2.31193 3989 ft 265 kts 100°
2026-05-04 15:11 53.58306 -2.28143 3987 ft 265 kts 100°
2026-05-04 15:11 53.57967 -2.25088 3986 ft 265 kts 100°
2026-05-04 15:11 53.57627 -2.22037 3990 ft 265 kts 100°
2026-05-04 15:11 53.57286 -2.18983 3987 ft 265 kts 100°
2026-05-04 15:12 53.56945 -2.15933 3992 ft 265 kts 100°
2026-05-04 15:12 53.56603 -2.12885 3993 ft 265 kts 100°
2026-05-04 15:12 53.56264 -2.09870 3989 ft 265 kts 100°
2026-05-04 15:12 53.55821 -2.06864 3960 ft 255 kts 114°
2026-05-04 15:13 53.54885 -2.04501 3884 ft 240 kts 136°
2026-05-04 15:13 53.53546 -2.02983 3789 ft 227 kts 158°
2026-05-04 15:13 53.52104 -2.02058 3693 ft 217 kts 160°
2026-05-04 15:13 53.50725 -2.01187 3602 ft 208 kts 161°
2026-05-04 15:14 53.49328 -2.00814 3507 ft 203 kts 187°
2026-05-04 15:14 53.48021 -2.01569 3496 ft 198 kts 216°
2026-05-04 15:14 53.47100 -2.03107 3519 ft 179 kts 232°
2026-05-04 15:14 53.46333 -2.04719 3474 ft 176 kts 232°
2026-05-04 15:15 53.45561 -2.06329 3201 ft 176 kts 232°
2026-05-04 15:15 53.44794 -2.07928 2945 ft 176 kts 232°
2026-05-04 15:15 53.44030 -2.09519 2703 ft 175 kts 232°
2026-05-04 15:16 53.42504 -2.12695 2218 ft 174 kts 232°
2026-05-04 15:16 53.41760 -2.14241 1989 ft 165 kts 231°
2026-05-04 15:16 53.40405 -2.17052 1641 ft 147 kts 231°
2026-05-04 15:17 53.39767 -2.18377 1448 ft 145 kts 231°
2026-05-04 15:17 53.38513 -2.20982 1054 ft 142 kts 231°
2026-05-04 15:17 53.37904 -2.22250 859 ft 141 kts 231°
2026-05-04 15:18 53.37288 -2.23524 661 ft 140 kts 231°
2026-05-04 15:18 53.36683 -2.24786 474 ft 139 kts 231°
2026-05-04 15:18 53.36079 -2.26037 292 ft 138 kts 231°
2026-05-04 15:19 53.35327 -2.27601 242 ft 37 kts 236°
2026-05-04 15:19 53.35244 -2.27998 233 ft 32 kts 260°
2026-05-04 15:19 53.35332 -2.28192 233 ft 12 kts 20°
2026-05-04 15:20 53.35400 -2.28166 236 ft 8 kts
2026-05-04 15:20 53.35458 -2.28147 238 ft 12 kts 16°
2026-05-04 15:20 53.35543 -2.28064 235 ft 14 kts 43°
2026-05-04 15:20 53.35594 -2.27962 239 ft 9 kts 51°
2026-05-04 15:21 53.35629 -2.27904 241 ft 7 kts 31°
2026-05-04 15:21 53.35683 -2.27885 244 ft 9 kts
2026-05-04 15:21 53.35835 -2.27859 252 ft 13 kts
2026-05-04 15:22 53.35932 -2.27851 255 ft 16 kts 352°
2026-05-04 15:22 53.36027 -2.27954 255 ft 17 kts 319°
2026-05-04 15:22 53.36216 -2.28253 255 ft 20 kts 315°
2026-05-04 15:23 53.36311 -2.28414 255 ft 14 kts 315°
2026-05-04 15:23 53.36383 -2.28477 255 ft 11 kts 350°
2026-05-04 15:23 53.36443 -2.28528 255 ft 9 kts 320°
2026-05-04 15:23 53.36484 -2.28596 255 ft 8 kts 315°
2026-05-04 15:24 53.36577 -2.28770 255 ft 13 kts 300°
2026-05-04 15:24 53.36697 -2.28959 255 ft 10 kts 315°
2026-05-04 15:25 53.36747 -2.29034 255 ft 9 kts 331°
2026-05-04 15:25 53.36803 -2.29020 255 ft 10 kts 19°
2026-05-04 15:25 53.36865 -2.28943 255 ft 11 kts 44°
2026-05-04 15:26 53.36948 -2.28793 255 ft 6 kts 79°
2026-05-04 15:26 53.36927 -2.28755 255 ft 4 kts 139°
2026-05-04 15:26 53.36920 -2.28743 255 ft 0 kts 135°